User: anonymous   Login
Location: Unspecified
(0.0000°N, 0.0000°E)
Time: 10:31:11
(UTC+00:00)
Language:

Fuji - Orbit

View from above orbital plane
View from above orbital plane
View from above satellite
View from above satellite

Ground track
Ground track

The orbit data is extracted from the following two-line orbital elements,

1 16909U 86061B   22271.48952740 -.00000097  00000-0  24170-5 0  9995
2 16909  50.0181   7.4446 0011017 307.6270 142.1081 12.44473128643031
Epoch (UTC): 28 September 2022 11:44:55
Eccentricity: 0.0011017
inclination: 50.0181°
perigee height: 1479 km
apogee height: 1496 km
right ascension of ascending node: 7.4446°
argument of perigee: 307.6270°
revolutions per day: 12.44473128
mean anomaly at epoch: 142.1081°
orbit number at epoch: 64303

The dashed part of the orbit path shows where the satellite is in the earth's shadow,  

DLR